Flag for Iran Weather past 2 weeks in Mashhad, Iran

Now
41 °F

Passing clouds.


Feels Like: 36 °F
Forecast: 30 / 45 °F
Wind: 7 mph from South

Location: Mashhad Airport

Current Time: Dec 21, 2014 at 5:30:35 AM

Latest Report: Dec 21, 2014 at 5:00 AM


Visibility: N/A

Pressure: 30.04 "Hg

Humidity: 81%

Dew point: 36 °F

Location of MashhadLocation

Historic Weather in Mashhad — Graph

°F

Mashhad temperature yesterday

Maximum temperature yesterday: 57 °F (at 12:30 PM)
Minimum temperature yesterday: 39 °F (at 5:55 AM)
Average temperature yesterday: 47 °F

Past Weeks' High & Low Weather Summary

 TemperatureHumidityPressure
High57 °F (Dec 10, 1:30 PM)100% (Dec 7, 1:30 AM)30.69 "Hg (Dec 7, 1:30 AM)
Low25 °F (Dec 8, 5:30 AM)12% (Dec 15, 2:00 PM)30.04 "Hg (Dec 21, 1:50 AM)
Average40 °F66%30.29 "Hg
* Reported Dec 6 4:30 AM — Dec 21 4:30 AM, Mashhad, Weather by CustomWeather, © 2014

Note: Actual official high and low records may vary slightly from our data, if they occured in-between our weather recording intervals... More about our weather records

Advertising

Mashhad weather history for previous 24 hours

 ConditionsComfort  
Time TempWeatherWind HumidityBarometerVisibility
4:30 AM
Dec 21
41 °FPassing clouds.5 mph76%30.04 "HgN/A
4:00 AM41 °FClear.5 mph81%30.04 "Hg10 mi
3:30 AM39 °FClear.No wind81%30.04 "Hg10 mi
3:00 AM39 °FClear.No wind81%30.04 "Hg10 mi
2:30 AM39 °FClear.5 mph81%30.04 "Hg10 mi
1:50 AM39 °FClear.5 mph81%30.04 "Hg10 mi
1:00 AM43 °FPartly cloudy.No wind71%30.07 "HgN/A
12:30 AM43 °FPartly cloudy.No wind76%30.07 "HgN/A
12:00 AM43 °FPartly cloudy.No wind76%30.09 "HgN/A
11:30 PM
Dec 20
43 °FPartly cloudy.No wind71%30.09 "HgN/A
11:00 PM45 °FClear.No wind66%30.09 "Hg4 mi
10:30 PM45 °FClear.5 mph66%30.09 "Hg4 mi
10:00 PM45 °FClear.5 mph71%30.09 "Hg4 mi
9:30 PM45 °FClear.5 mph66%30.09 "Hg4 mi
8:30 PM45 °FHaze.5 mph71%30.09 "Hg3 mi
8:00 PM46 °FHaze.5 mph71%30.09 "Hg3 mi
7:30 PM46 °FHaze.5 mph71%30.09 "Hg3 mi
7:00 PM48 °FClear.5 mph62%30.09 "Hg4 mi
6:30 PM48 °FClear.5 mph62%30.09 "Hg4 mi
6:00 PM50 °FPassing clouds.5 mph62%30.09 "Hg4 mi
5:30 PM52 °FPassing clouds.5 mph58%30.09 "Hg4 mi
5:00 PM52 °FPartly cloudy.5 mph54%30.09 "Hg4 mi
4:30 PM52 °FBroken clouds.5 mph54%30.09 "Hg4 mi
4:00 PM54 °FBroken clouds.No wind51%30.09 "Hg5 mi
3:30 PM54 °FBroken clouds.5 mph51%30.09 "Hg5 mi
3:00 PM54 °FPartly sunny.5 mph51%30.09 "Hg5 mi
2:30 PM54 °FBroken clouds.5 mph51%30.09 "HgN/A
2:00 PM55 °FBroken clouds.7 mph51%30.09 "HgN/A
1:30 PM55 °FPartly sunny.7 mph47%30.09 "HgN/A
1:00 PM55 °FScattered clouds.5 mph47%30.09 "HgN/A
12:30 PM57 °FScattered clouds.7 mph41%30.09 "HgN/A
12:00 PM55 °FScattered clouds.7 mph47%30.12 "HgN/A
11:30 AM55 °FScattered clouds.7 mph51%30.12 "HgN/A
11:00 AM54 °FScattered clouds.5 mph54%30.12 "Hg5 mi
10:30 AM48 °FPartly sunny.5 mph62%30.15 "Hg4 mi
10:00 AM48 °FPartly sunny.7 mph66%30.18 "Hg5 mi
9:30 AM46 °FScattered clouds.5 mph62%30.18 "HgN/A
9:00 AM46 °FPartly sunny.7 mph62%30.18 "HgN/A
8:20 AM46 °FPartly sunny.7 mph57%30.15 "HgN/A
7:50 AM45 °FPartly sunny.5 mph66%30.15 "Hg5 mi
7:30 AM43 °FClear.5 mph76%30.15 "Hg4 mi
6:55 AM43 °FClear.No wind76%30.15 "Hg5 mi
6:30 AM41 °FClear.5 mph81%30.15 "Hg10 mi
5:55 AM39 °FClear.5 mph70%30.15 "Hg10 mi
5:30 AM41 °FClear.No wind81%30.12 "Hg10 mi
5:00 AM41 °FClear.No wind76%30.12 "Hg10 mi
Weather by CustomWeather, © 2014

See weather overviewHow to use our weather pages